Starlink 31896

operational
NORAD ID: 59851 Int'l Des: 2024-097 Owner: SPXS Country: US Constellation: starlink
LEOCIRCULAR

About Starlink 31896

Description loading...

Live Position

Loading 3D Globe...

Upcoming Passes

Altitude History

Altitude vs Time

uPlot chart will show altitude changes over time

Two-Line Element Set

1 59851U 24097S 26034.47060078 .00010755 00000-0 39967-3 0 9992
2 59851 43.0002 107.5932 0001373 278.5433 81.5263 15.27589437 96687
Epoch: Feb 3, 2026 • Age: 20 hours

Current Status

Altitude 486.4 km
Velocity 7.62 km/s
Sub-Earth Point -17.36°S, 62.63°E
Launch Date May 23, 2024
Age 1.7 years
Type internet

Technical Details

Classification Payload
Mass 730.00 kg
Dry Mass 700.00 kg
Total Mass 730.00 kg
Length 0.30 m
Diameter 4.10 m
Span 29.00 m
Shape Box + pan
Manufacturer SPXS
Bus Type Starlink V2M
Phase Status In Orbit
Owner/State SPXS/US

Large Constellations

Loading constellations...